TIANMU-1 20

Last updated on Wed Sep 23 2026 00:03:10 GMT+0000 (Coordinated Universal Time)

1 58661U 23208B 26265.55443046 .00006046 00000+0 18570-3 0 9992 2 58661 97.4522 23.2270 0006255 347.0446 13.0635 15.34086062152347
UTC large
Height (km)
Speed (km/s)
/
Latitude / Longitude
Inclination (degrees)
Orbital Period (minutes)
Azimuth
Elevation
Range (km)
Doppler Factor

Next 0 passes for location: London (51.5072 / 0.1276)

No passes found over London.
TIANMU-1 20